STARLINK-32113, 60282

Orbit data source: Space-Track

STARLINK-32113, 60282 is a payload satellite owned by SpaceX/Seattle (US) in LEO that was launched on Sun, 28 Jul 2024 UTC via an FALCON 9 launch vehicle from the Air Force Eastern Test Range (AFETR). Payload-class satellites include a variety of spacecraft equipped with specific instruments for various scientific and technological missions. These include communications satellites like Starlink; space stations such as the ISS; scientific satellites like the Hubble; Earth observation satellites from companies like Planet Labs, Umbra, and HawkEye 360; GPS; miniature CubeSats for education and research; and military/defense satellites.

Loading next visibility...
Identifier
60282, 2024-132E
Orbit
LEO
Country
Flag of USUS
Related business
Manufacturer
SpaceX/Seattle
Mission
Operational Commercial Communications
Bus & Motor
STARLINK V2M, Unknown motor
Mass
730 kg wet, ~700 kg dry
Launch date (UTC)
2024-07-28 (1 year ago)
Launch vehicle
FALCON 9
Launch site
Air Force Eastern Test Range (AFETR)
Object type
Payload
Rocket body
Debris
Shape & HBR
Box + 2 Pan, 17.7 m
Radar Cross Section
33.884 m², Large (>1 m²)

Expand to show TLE details & history
Last TLE update: 17 hours ago

TLE from 17 hours ago
0 STARLINK-32113
1 60282U 24132E   25349.63952168  .00000384  00000-0  25100-4 0  9990
2 60282  53.1615  82.7167 0001213  88.8249 271.2891 15.30197167 78698
Epoch: 2025-12-15T15:20Z
TLE epoch observation values (Epoch: 2025-12-15T15:20:54.673Z)
Latitude
0.00002°
Longitude
127.95371°
Altitude
476.105 km
Speed
7.629 km/s
True Right ascension
05h 30m 52s
True Declination
0° 00' 00"
Sunlit
Object was in full shadow at epoch
Visualization orbit readout
Latitude
Unknown
Longitude
Unknown
Altitude
Unknown
Speed
Unknown
Apparent Right ascension
Unknown
Apparent Declination
Unknown
Sunlit
N/A
Visualization observer readout
Local Sidereal Time
07:16:36
Azimuth
Unknown
Elevation
Unknown
Doppler factor
Unknown
Orbital elements
Apogee altitude
476.311 km
Perigee altitude
474.648 km
Semi-major axis
6,853.617 km
Eccentricity
0.00012
Inclination
53.1615°
RAAN
82.7167°
Arg. of periapsis
88.8249°
True anomaly
271.2752°
Mean anomaly
271.2891°
Eccentric anomaly
271.28215°
Mean motion
3.82528 °/min
Orbital period
94.11 mins
BSTAR
0.0000251
Loading maneuver chart data...
Computing Atmospheric mass density...
Loading historical data...
Loading historical data...
Loading historical data...
Loading historical data...
Loading historical data...
Loading historical data...
Loading historical data...

Documentation

Showing up to 5 results
|